Year,Month,Day,Hour,Minute,Value (Times are PST for temperature in C)
2016,03,10,00,06,8.10
2016,03,10,00,07,8.10
2016,03,10,00,08,8.10
2016,03,10,00,09,8.10
2016,03,10,00,10,8.10
2016,03,10,00,11,8.10
2016,03,10,00,12,8.10
2016,03,10,00,13,8.10
2016,03,10,00,14,8.10
2016,03,10,00,15,8.10
2016,03,10,00,16,8.10
2016,03,10,00,17,8.10
2016,03,10,00,18,8.10
2016,03,10,00,19,8.10
2016,03,10,00,20,8.10
2016,03,10,00,21,8.10
2016,03,10,00,22,8.00
2016,03,10,00,23,8.00
2016,03,10,00,24,8.00
2016,03,10,00,25,8.00
2016,03,10,00,26,8.00
2016,03,10,00,27,8.00
2016,03,10,00,28,8.00
2016,03,10,00,29,8.00
2016,03,10,00,30,8.00
2016,03,10,00,31,8.00
2016,03,10,00,32,8.00
2016,03,10,00,33,8.00
2016,03,10,00,34,8.00
2016,03,10,00,35,7.90
2016,03,10,00,36,7.90
2016,03,10,00,37,7.90
2016,03,10,00,38,7.90
2016,03,10,00,39,7.90
2016,03,10,00,40,7.90
2016,03,10,00,41,7.90
2016,03,10,00,42,7.90
2016,03,10,00,43,7.90
2016,03,10,00,44,7.90
2016,03,10,00,45,7.80
2016,03,10,00,46,7.80
2016,03,10,00,47,7.80
2016,03,10,00,48,7.80
2016,03,10,00,49,7.80
2016,03,10,00,50,7.80
2016,03,10,00,51,7.80
2016,03,10,00,52,7.80
2016,03,10,00,53,7.80
2016,03,10,00,54,7.70
2016,03,10,00,55,7.70
2016,03,10,00,56,7.70
2016,03,10,00,57,7.70
2016,03,10,00,58,7.70
2016,03,10,00,59,7.70
2016,03,10,01,00,7.70
2016,03,10,01,01,7.60
2016,03,10,01,02,7.60
2016,03,10,01,03,7.60
2016,03,10,01,04,7.60
2016,03,10,01,05,7.60
2016,03,10,01,06,7.60
2016,03,10,01,07,7.60
2016,03,10,01,08,7.60
2016,03,10,01,09,7.60
2016,03,10,01,10,7.70
2016,03,10,01,11,7.70
2016,03,10,01,12,7.70
2016,03,10,01,13,7.70
2016,03,10,01,14,7.70
2016,03,10,01,15,7.60
2016,03,10,01,16,7.60
2016,03,10,01,17,7.60
2016,03,10,01,18,7.60
2016,03,10,01,19,7.60
2016,03,10,01,20,7.60
2016,03,10,01,21,7.70
2016,03,10,01,22,7.70
2016,03,10,01,23,7.70
2016,03,10,01,24,7.70
2016,03,10,01,25,7.70
2016,03,10,01,26,7.70
2016,03,10,01,27,7.70
2016,03,10,01,28,7.70
2016,03,10,01,29,7.70
2016,03,10,01,30,7.70
2016,03,10,01,31,7.70
2016,03,10,01,32,7.70
2016,03,10,01,33,7.70
2016,03,10,01,34,7.70
2016,03,10,01,35,7.70
2016,03,10,01,36,7.80
2016,03,10,01,37,7.80
2016,03,10,01,38,7.80
2016,03,10,01,39,7.80
2016,03,10,01,40,7.80
2016,03,10,01,41,7.80
2016,03,10,01,42,7.80
2016,03,10,01,43,7.80
2016,03,10,01,44,7.80
2016,03,10,01,45,7.80
2016,03,10,01,46,7.80
2016,03,10,01,47,7.80
2016,03,10,01,48,7.80
2016,03,10,01,49,7.80
2016,03,10,01,50,7.80
2016,03,10,01,51,7.80
2016,03,10,01,52,7.70
2016,03,10,01,53,7.70
2016,03,10,01,54,7.70
2016,03,10,01,55,7.70
2016,03,10,01,56,7.70
2016,03,10,01,57,7.80
2016,03,10,01,58,7.80
2016,03,10,01,59,7.80
2016,03,10,02,00,7.80
2016,03,10,02,01,7.80
2016,03,10,02,02,7.80
2016,03,10,02,03,7.80
2016,03,10,02,04,7.80
2016,03,10,02,05,7.80
2016,03,10,02,06,7.80
2016,03,10,02,07,7.80
2016,03,10,02,08,7.80
2016,03,10,02,09,7.80
2016,03,10,02,10,7.70
2016,03,10,02,11,7.70
2016,03,10,02,12,7.70
2016,03,10,02,13,7.70
2016,03,10,02,14,7.70
2016,03,10,02,15,7.70
2016,03,10,02,16,7.70
2016,03,10,02,17,7.70
2016,03,10,02,18,7.70
2016,03,10,02,19,7.70
2016,03,10,02,20,7.70
2016,03,10,02,21,7.70
2016,03,10,02,22,7.80
2016,03,10,02,23,7.80
2016,03,10,02,24,7.80
2016,03,10,02,25,7.80
2016,03,10,02,26,7.80
2016,03,10,02,27,7.90
2016,03,10,02,28,7.90
2016,03,10,02,29,7.90
2016,03,10,02,30,7.90
2016,03,10,02,31,7.90
2016,03,10,02,32,7.90
2016,03,10,02,33,7.90
2016,03,10,02,34,7.90
2016,03,10,02,35,7.90
2016,03,10,02,36,7.90
2016,03,10,02,37,7.90
2016,03,10,02,38,7.90
2016,03,10,02,39,7.90
2016,03,10,02,40,7.90
2016,03,10,02,41,7.90
2016,03,10,02,42,7.90
2016,03,10,02,43,8.00
2016,03,10,02,44,8.00
2016,03,10,02,45,8.00
2016,03,10,02,46,8.10
2016,03,10,02,47,8.10
2016,03,10,02,48,8.10
2016,03,10,02,49,8.10
2016,03,10,02,50,8.10
2016,03,10,02,51,8.10
2016,03,10,02,52,8.20
2016,03,10,02,53,8.20
2016,03,10,02,54,8.20
2016,03,10,02,55,8.20
2016,03,10,02,56,8.20
2016,03,10,02,57,8.20
2016,03,10,02,58,8.20
2016,03,10,02,59,8.20
2016,03,10,03,00,8.20
2016,03,10,03,01,8.20
2016,03,10,03,02,8.30
2016,03,10,03,03,8.30
2016,03,10,10,04,8.30
2016,03,10,10,05,8.40
2016,03,10,10,06,8.40
2016,03,10,10,07,8.50
2016,03,10,10,08,8.50
2016,03,10,10,09,8.60
2016,03,10,10,10,8.60
2016,03,10,10,11,8.60
2016,03,10,10,12,8.60
2016,03,10,10,13,8.70
2016,03,10,10,14,8.70
2016,03,10,10,15,8.70
2016,03,10,10,16,8.70
2016,03,10,10,17,8.70
2016,03,10,10,18,8.70
2016,03,10,10,19,8.70
2016,03,10,10,20,8.70
2016,03,10,10,21,8.80
2016,03,10,10,22,8.80
2016,03,10,10,23,8.80
2016,03,10,10,24,8.90
2016,03,10,10,25,8.90
2016,03,10,10,26,8.90
2016,03,10,10,27,8.90
2016,03,10,10,28,9.00
2016,03,10,10,29,9.10
2016,03,10,10,30,9.10
2016,03,10,10,31,9.20
2016,03,10,10,32,9.20
2016,03,10,10,33,9.30
2016,03,10,10,34,9.30
2016,03,10,10,35,9.40
2016,03,10,10,36,9.40
2016,03,10,10,37,9.40
2016,03,10,10,38,9.50
2016,03,10,10,39,9.50
2016,03,10,10,40,9.60
2016,03,10,10,41,9.60
2016,03,10,10,42,9.70
2016,03,10,10,43,9.70
2016,03,10,10,44,9.70
2016,03,10,10,45,9.70
2016,03,10,10,46,9.70
2016,03,10,10,47,9.80
2016,03,10,10,48,9.80
2016,03,10,10,49,9.80
2016,03,10,10,50,9.80
2016,03,10,10,51,9.80
2016,03,10,10,52,9.80
2016,03,10,10,53,9.80
2016,03,10,10,54,9.90
2016,03,10,10,55,9.90
2016,03,10,10,56,9.90
2016,03,10,10,57,9.90
2016,03,10,10,58,9.90
2016,03,10,10,59,9.90
2016,03,10,11,00,9.90
2016,03,10,11,01,9.90
2016,03,10,11,02,9.90
2016,03,10,11,03,9.90
2016,03,10,11,04,9.90
2016,03,10,11,05,9.90
2016,03,10,11,06,9.80
2016,03,10,11,07,9.80
2016,03,10,11,08,9.80
2016,03,10,11,09,9.80
2016,03,10,11,10,9.80
2016,03,10,11,11,9.80
2016,03,10,11,12,9.80
2016,03,10,11,13,9.80
2016,03,10,11,14,9.80
2016,03,10,11,15,9.90
2016,03,10,11,16,9.90
2016,03,10,11,17,9.90
2016,03,10,11,18,10.00
2016,03,10,11,19,10.10
2016,03,10,11,20,10.10
2016,03,10,11,21,10.20
2016,03,10,11,22,10.20
2016,03,10,11,23,10.20
2016,03,10,11,24,10.20
2016,03,10,11,25,10.20
2016,03,10,11,26,10.20
2016,03,10,11,27,10.20
2016,03,10,11,28,10.20
2016,03,10,11,29,10.20
2016,03,10,11,30,10.30
2016,03,10,11,31,10.30
2016,03,10,11,32,10.40
2016,03,10,11,33,10.40
2016,03,10,11,34,10.50
2016,03,10,11,35,10.50
2016,03,10,11,36,10.60
2016,03,10,11,37,10.70
2016,03,10,11,38,10.70
2016,03,10,11,39,10.80
2016,03,10,11,40,10.80
2016,03,10,11,41,10.90
2016,03,10,11,42,10.90
2016,03,10,11,43,11.00
2016,03,10,11,44,11.10
2016,03,10,11,45,11.20
2016,03,10,11,46,11.20
2016,03,10,11,47,11.30
2016,03,10,11,48,11.40
2016,03,10,11,49,11.50
2016,03,10,11,50,11.50
2016,03,10,11,51,11.50
2016,03,10,11,52,11.50
2016,03,10,11,53,11.50
2016,03,10,11,54,11.60
2016,03,10,11,55,11.60
2016,03,10,11,56,11.60
2016,03,10,11,57,11.60
2016,03,10,11,58,11.60
2016,03,10,11,59,11.60
2016,03,10,12,00,11.70
2016,03,10,12,01,11.60
2016,03,10,12,02,11.60
2016,03,10,12,03,11.50
2016,03,10,12,04,11.40
2016,03,10,12,05,11.30
2016,03,10,12,06,11.20
2016,03,10,12,07,11.10
2016,03,10,12,08,11.00
2016,03,10,12,09,10.90
2016,03,10,12,10,10.90
2016,03,10,12,11,10.80
2016,03,10,12,12,10.80
2016,03,10,12,13,10.80
2016,03,10,12,14,10.80
2016,03,10,12,15,10.80
2016,03,10,12,16,10.90
2016,03,10,12,17,11.00
2016,03,10,12,18,11.10
2016,03,10,12,19,11.20
2016,03,10,12,20,11.20
2016,03,10,12,21,11.30
2016,03,10,12,22,11.30
2016,03,10,12,23,11.30
2016,03,10,12,24,11.40
2016,03,10,12,25,11.40
2016,03,10,12,26,11.50
2016,03,10,12,27,11.50
2016,03,10,12,28,11.60
2016,03,10,12,29,11.60
2016,03,10,12,30,11.60
2016,03,10,12,31,11.60
2016,03,10,12,32,11.60
2016,03,10,12,33,11.60
2016,03,10,12,34,11.60
2016,03,10,12,35,11.50
2016,03,10,12,36,11.50
2016,03,10,12,37,11.40
2016,03,10,12,38,11.30
2016,03,10,12,39,11.30
2016,03,10,12,40,11.30
2016,03,10,12,41,11.20
2016,03,10,12,42,11.20
2016,03,10,12,43,11.10
2016,03,10,12,44,11.10
2016,03,10,12,45,11.10
2016,03,10,12,46,11.00
2016,03,10,12,47,11.00
2016,03,10,12,48,11.00
2016,03,10,12,49,10.90
2016,03,10,12,50,10.90
2016,03,10,12,51,10.90
2016,03,10,12,52,10.90
2016,03,10,12,53,10.90
2016,03,10,12,54,11.00
2016,03,10,12,55,11.00
2016,03,10,12,56,11.10
2016,03,10,12,57,11.10
2016,03,10,12,58,11.10
2016,03,10,12,59,11.20
2016,03,10,13,00,11.20
2016,03,10,13,01,11.30
2016,03,10,13,02,11.30
2016,03,10,13,03,11.30
2016,03,10,13,04,11.40
2016,03,10,13,05,11.40
2016,03,10,13,06,11.50
2016,03,10,13,07,11.60
2016,03,10,13,08,11.70
2016,03,10,13,09,11.70
2016,03,10,13,10,11.80
2016,03,10,13,11,11.90
2016,03,10,13,12,12.00
2016,03,10,13,13,12.00
2016,03,10,13,14,12.10
2016,03,10,13,15,12.10
2016,03,10,13,16,12.10
2016,03,10,13,17,12.10
2016,03,10,13,18,12.00
2016,03,10,13,19,11.90
2016,03,10,13,20,11.80
2016,03,10,13,21,11.60
2016,03,10,13,22,11.50
2016,03,10,13,23,11.40
2016,03,10,13,24,11.40
2016,03,10,13,25,11.30
2016,03,10,13,26,11.20
2016,03,10,13,27,11.10
2016,03,10,13,28,11.10
2016,03,10,13,29,11.00
2016,03,10,13,30,11.00
2016,03,10,13,31,10.90
2016,03,10,13,32,10.90
2016,03,10,13,33,10.80
2016,03,10,13,34,10.80
2016,03,10,13,35,10.80
2016,03,10,13,36,10.80
2016,03,10,13,37,10.80
2016,03,10,13,38,10.80
2016,03,10,13,39,10.80
2016,03,10,13,40,10.70
2016,03,10,13,41,10.70
2016,03,10,13,42,10.70
2016,03,10,13,43,10.70
2016,03,10,13,44,10.70
2016,03,10,13,45,10.60
2016,03,10,13,46,10.60
2016,03,10,13,47,10.60
2016,03,10,13,48,10.60
2016,03,10,13,49,10.60
2016,03,10,13,50,10.60
2016,03,10,13,51,10.60
2016,03,10,13,52,10.60
2016,03,10,13,53,10.60
2016,03,10,13,54,10.60
2016,03,10,13,55,10.60
2016,03,10,13,56,10.60
2016,03,10,13,57,10.60
2016,03,10,13,58,10.70
2016,03,10,13,59,10.70
2016,03,10,14,00,10.70
2016,03,10,14,01,10.70
2016,03,10,14,02,10.70
2016,03,10,14,03,10.70
2016,03,10,14,04,10.70
2016,03,10,14,05,10.60
2016,03,10,14,06,10.60
2016,03,10,14,07,10.60
2016,03,10,14,08,10.60
2016,03,10,14,09,10.60
2016,03,10,14,10,10.50
2016,03,10,14,11,10.50
2016,03,10,14,12,10.40
2016,03,10,14,13,10.40
2016,03,10,14,14,10.30
2016,03,10,14,15,10.30
2016,03,10,14,16,10.30
2016,03,10,14,17,10.30
2016,03,10,14,18,10.30
2016,03,10,14,19,10.30
2016,03,10,14,20,10.30
2016,03,10,14,21,10.30
2016,03,10,14,22,10.30
2016,03,10,14,23,10.30
2016,03,10,14,24,10.20
2016,03,10,14,25,10.20
2016,03,10,14,26,10.20
2016,03,10,14,27,10.20
2016,03,10,14,28,10.10
2016,03,10,14,29,10.10
2016,03,10,14,30,10.10
2016,03,10,14,31,10.00
2016,03,10,14,32,10.00
2016,03,10,14,33,10.00
2016,03,10,14,34,9.90
2016,03,10,14,35,9.90
2016,03,10,14,36,9.80
2016,03,10,14,37,9.70
2016,03,10,14,38,9.70
2016,03,10,14,39,9.70
2016,03,10,14,40,9.70
2016,03,10,14,41,9.70
2016,03,10,14,42,9.60
2016,03,10,14,43,9.60
2016,03,10,14,44,9.60
2016,03,10,14,45,9.50
2016,03,10,14,46,9.50
2016,03,10,14,47,9.40
2016,03,10,14,48,9.30
2016,03,10,14,49,9.20
2016,03,10,14,50,9.20
2016,03,10,14,51,9.10
2016,03,10,14,52,9.00
2016,03,10,14,53,9.00
2016,03,10,14,54,9.00
2016,03,10,14,55,8.90
2016,03,10,14,56,8.90
2016,03,10,14,57,8.90
2016,03,10,14,58,8.90
2016,03,10,14,59,8.90
2016,03,10,15,00,8.80
2016,03,10,15,01,8.80
2016,03,10,15,02,8.80
2016,03,10,15,03,8.80
2016,03,10,15,04,8.80
2016,03,10,15,05,8.80
2016,03,10,15,06,8.70
2016,03,10,15,07,8.70
2016,03,10,15,08,8.70
2016,03,10,15,09,8.70
2016,03,10,15,10,8.70
2016,03,10,15,11,8.70
2016,03,10,15,12,8.70
2016,03,10,15,13,8.70
2016,03,10,15,14,8.60
2016,03,10,15,15,8.60
2016,03,10,15,16,8.60
2016,03,10,15,17,8.60
2016,03,10,15,18,8.60
2016,03,10,15,19,8.60
2016,03,10,15,20,8.60
2016,03,10,15,21,8.60
2016,03,10,15,22,8.60
2016,03,10,15,23,8.70
2016,03,10,15,24,8.70
2016,03,10,15,25,8.70
2016,03,10,15,26,8.70
2016,03,10,15,27,8.70
2016,03,10,15,28,8.80
2016,03,10,15,29,8.80
2016,03,10,15,30,8.80
2016,03,10,15,31,8.90
2016,03,10,15,32,8.90
2016,03,10,15,33,9.00
2016,03,10,15,34,9.00
2016,03,10,15,35,9.10
2016,03,10,15,36,9.10
2016,03,10,15,37,9.10
2016,03,10,15,38,9.20
2016,03,10,15,39,9.20
2016,03,10,15,40,9.20
2016,03,10,15,41,9.30
2016,03,10,15,42,9.30
2016,03,10,15,43,9.30
2016,03,10,15,44,9.30
2016,03,10,15,45,9.40
2016,03,10,15,46,9.40
2016,03,10,15,47,9.40
2016,03,10,15,48,9.50
2016,03,10,15,49,9.50
2016,03,10,15,50,9.50
2016,03,10,15,51,9.60
2016,03,10,15,52,9.60
2016,03,10,15,53,9.60
2016,03,10,15,54,9.50
2016,03,10,15,55,9.50
2016,03,10,15,56,9.50
2016,03,10,15,57,9.60
2016,03,10,15,58,9.60
2016,03,10,15,59,9.60
2016,03,10,16,00,9.60
2016,03,10,16,01,9.60
2016,03,10,16,02,9.60
2016,03,10,16,03,9.60
2016,03,10,16,04,9.60
2016,03,10,16,05,9.60
2016,03,10,16,06,9.60
2016,03,10,16,07,9.60
2016,03,10,16,08,9.60
2016,03,10,16,09,9.60
2016,03,10,16,10,9.60
2016,03,10,16,11,9.60
2016,03,10,16,12,9.60
2016,03,10,16,13,9.60
2016,03,10,16,14,9.60
2016,03,10,16,15,9.60
2016,03,10,16,16,9.60
2016,03,10,16,17,9.60
2016,03,10,16,18,9.70
2016,03,10,16,19,9.70
2016,03,10,16,20,9.70
2016,03,10,16,21,9.70
2016,03,10,16,22,9.70
2016,03,10,16,23,9.70
2016,03,10,16,24,9.70
2016,03,10,16,25,9.70
2016,03,10,16,26,9.70
2016,03,10,16,27,9.70
2016,03,10,16,28,9.70
2016,03,10,16,29,9.70
2016,03,10,16,30,9.60
2016,03,10,16,31,9.60
2016,03,10,16,32,9.60
2016,03,10,16,33,9.60
2016,03,10,16,34,9.60
2016,03,10,16,35,9.60
2016,03,10,16,36,9.60
2016,03,10,16,37,9.60
2016,03,10,16,38,9.60
2016,03,10,16,39,9.50
2016,03,10,16,40,9.50
2016,03,10,16,41,9.50
2016,03,10,16,42,9.40
2016,03,10,16,43,9.40
2016,03,10,16,44,9.40
2016,03,10,16,45,9.40
2016,03,10,16,46,9.40
2016,03,10,16,47,9.40
2016,03,10,16,48,9.40
2016,03,10,16,49,9.40
2016,03,10,16,50,9.40
2016,03,10,16,51,9.40
2016,03,10,16,52,9.40
2016,03,10,16,53,9.40
2016,03,10,16,54,9.40
2016,03,10,16,55,9.40
2016,03,10,16,56,9.40
2016,03,10,16,57,9.40
2016,03,10,16,58,9.40
2016,03,10,16,59,9.40
2016,03,10,17,00,9.40
2016,03,10,17,01,9.40
2016,03,10,17,02,9.40
2016,03,10,17,03,9.40
2016,03,10,17,04,9.40
2016,03,10,17,05,9.40
2016,03,10,17,06,9.40
2016,03,10,17,07,9.40
2016,03,10,17,08,9.40
2016,03,10,17,09,9.40
2016,03,10,17,10,9.40
2016,03,10,17,11,9.40
2016,03,10,17,12,9.40
2016,03,10,17,13,9.30
2016,03,10,17,14,9.30
2016,03,10,17,15,9.30
2016,03,10,17,16,9.30
2016,03,10,17,17,9.20
2016,03,10,17,18,9.20
2016,03,10,17,19,9.20
2016,03,10,17,20,9.10
2016,03,10,17,21,9.10
2016,03,10,17,22,9.10
2016,03,10,17,23,9.00
2016,03,10,17,24,8.90
2016,03,10,17,25,8.90
2016,03,10,17,26,8.90
2016,03,10,17,27,8.80
2016,03,10,17,28,8.80
2016,03,10,17,29,8.70
2016,03,10,17,30,8.70
2016,03,10,17,31,8.60
2016,03,10,17,32,8.60
2016,03,10,17,33,8.60
2016,03,10,17,34,8.50
2016,03,10,17,35,8.50
2016,03,10,17,36,8.50
2016,03,10,17,37,8.40
2016,03,10,17,38,8.40
2016,03,10,17,39,8.40
2016,03,10,17,40,8.30
2016,03,10,17,41,8.30
2016,03,10,17,42,8.30
2016,03,10,17,43,8.30
2016,03,10,17,44,8.30
2016,03,10,17,45,8.20
2016,03,10,17,46,8.20
2016,03,10,17,47,8.20
2016,03,10,17,48,8.20
2016,03,10,17,49,8.10
2016,03,10,17,50,8.10
2016,03,10,17,51,8.10
2016,03,10,17,52,8.00
2016,03,10,17,53,8.00
2016,03,10,17,54,7.90
2016,03,10,17,55,7.90
2016,03,10,17,56,7.90
2016,03,10,17,57,7.80
2016,03,10,17,58,7.80
2016,03,10,17,59,7.80
2016,03,10,18,00,7.80
2016,03,10,18,01,7.70
2016,03,10,18,02,7.70
2016,03,10,18,03,7.70
2016,03,10,18,04,7.70
2016,03,10,18,05,7.60
2016,03,10,18,06,7.60
2016,03,10,18,07,7.60
2016,03,10,18,08,7.60
2016,03,10,18,09,7.50
2016,03,10,18,10,7.50
2016,03,10,18,11,7.50
2016,03,10,18,12,7.40
2016,03,10,18,13,7.40
2016,03,10,18,14,7.40
2016,03,10,18,15,7.40
2016,03,10,18,16,7.40
2016,03,10,18,17,7.30
2016,03,10,18,18,7.30
2016,03,10,18,19,7.30
2016,03,10,18,20,7.30
2016,03,10,18,21,7.30
2016,03,10,18,22,7.30
2016,03,10,18,23,7.30
2016,03,10,18,24,7.20
2016,03,10,18,25,7.20
2016,03,10,18,26,7.20
2016,03,10,18,27,7.20
2016,03,10,18,28,7.20
2016,03,10,18,29,7.20
2016,03,10,18,30,7.10
2016,03,10,18,31,7.10
2016,03,10,18,32,7.10
2016,03,10,18,33,7.10
2016,03,10,18,34,7.10
2016,03,10,18,35,7.00
2016,03,10,18,36,7.00
2016,03,10,18,37,7.00
2016,03,10,18,38,7.00
2016,03,10,18,39,7.00
2016,03,10,18,40,6.90
2016,03,10,18,41,6.90
2016,03,10,18,42,6.90
2016,03,10,18,43,6.90
2016,03,10,18,44,6.90
2016,03,10,18,45,6.90
2016,03,10,18,46,6.90
2016,03,10,18,47,6.80
2016,03,10,18,48,6.80
2016,03,10,18,49,6.80
2016,03,10,18,50,6.80
2016,03,10,18,51,6.70
2016,03,10,18,52,6.70
2016,03,10,18,53,6.70
2016,03,10,18,54,6.70
2016,03,10,18,55,6.70
2016,03,10,18,56,6.70
2016,03,10,18,57,6.60
2016,03,10,18,58,6.60
2016,03,10,18,59,6.60
2016,03,10,19,00,6.60
2016,03,10,19,01,6.50
2016,03,10,19,02,6.50
2016,03,10,19,03,6.50
2016,03,10,19,04,6.40
2016,03,10,19,05,6.40
2016,03,10,19,06,6.40
2016,03,10,19,07,6.40
2016,03,10,19,08,6.40
2016,03,10,19,09,6.40
2016,03,10,19,10,6.40
2016,03,10,19,11,6.40
2016,03,10,19,12,6.40
2016,03,10,19,13,6.40
2016,03,10,19,14,6.40
2016,03,10,19,15,6.40
2016,03,10,19,16,6.40
2016,03,10,19,17,6.40
2016,03,10,19,18,6.40
2016,03,10,19,19,6.40
2016,03,10,19,20,6.50
2016,03,10,19,21,6.50
2016,03,10,19,22,6.50
2016,03,10,19,23,6.50
2016,03,10,19,24,6.50
2016,03,10,19,25,6.50
2016,03,10,19,26,6.50
2016,03,10,19,27,6.50
2016,03,10,19,28,6.60
2016,03,10,19,29,6.60
2016,03,10,19,30,6.60
2016,03,10,19,31,6.60
2016,03,10,19,32,6.60
2016,03,10,19,33,6.60
2016,03,10,19,34,6.60
2016,03,10,19,35,6.60
2016,03,10,19,36,6.60
2016,03,10,19,37,6.60
2016,03,10,19,38,6.60
2016,03,10,19,39,6.60
2016,03,10,19,40,6.60
2016,03,10,19,41,6.60
2016,03,10,19,42,6.60
2016,03,10,19,43,6.60
2016,03,10,19,44,6.60
2016,03,10,19,45,6.60
2016,03,10,19,46,6.70
2016,03,10,19,47,6.70
2016,03,10,19,48,6.70
2016,03,10,19,49,6.70
2016,03,10,19,50,6.70
2016,03,10,19,51,6.70
2016,03,10,19,52,6.70
2016,03,10,19,53,6.80
2016,03,10,19,54,6.80
2016,03,10,19,55,6.80
2016,03,10,19,56,6.80
2016,03,10,19,57,6.80
2016,03,10,19,58,6.90
2016,03,10,19,59,6.90
2016,03,10,20,00,6.90
2016,03,10,20,01,6.90
2016,03,10,20,02,6.90
2016,03,10,20,03,7.00
2016,03,10,20,04,7.00
2016,03,10,20,05,7.00
2016,03,10,20,06,7.00
2016,03,10,20,07,7.10
2016,03,10,20,08,7.10
2016,03,10,20,09,7.10
2016,03,10,20,10,7.10
2016,03,10,20,11,7.20
2016,03,10,20,12,7.20
2016,03,10,20,13,7.20
2016,03,10,20,14,7.20
2016,03,10,20,15,7.20
2016,03,10,20,16,7.20
2016,03,10,20,17,7.30
2016,03,10,20,18,7.30
2016,03,10,20,19,7.30
2016,03,10,20,20,7.30
2016,03,10,20,21,7.30
2016,03,10,20,22,7.30
2016,03,10,20,23,7.30
2016,03,10,20,24,7.30
2016,03,10,20,25,7.30
2016,03,10,20,26,7.30
2016,03,10,20,27,7.30
2016,03,10,20,28,7.30
2016,03,10,20,29,7.30
2016,03,10,20,30,7.30
2016,03,10,20,31,7.30
2016,03,10,20,32,7.30
2016,03,10,20,33,7.30
2016,03,10,20,34,7.30
2016,03,10,20,35,7.40
2016,03,10,20,36,7.40
2016,03,10,20,37,7.40
2016,03,10,20,38,7.40
2016,03,10,20,39,7.40
2016,03,10,20,40,7.40
2016,03,10,20,41,7.40
2016,03,10,20,42,7.40
2016,03,10,20,43,7.40
2016,03,10,20,44,7.40
2016,03,10,20,45,7.40
2016,03,10,20,46,7.40
2016,03,10,20,47,7.40
2016,03,10,20,48,7.40
2016,03,10,20,49,7.40
2016,03,10,20,50,7.40
2016,03,10,20,51,7.30
2016,03,10,20,52,7.30
2016,03,10,20,53,7.30
2016,03,10,20,54,7.30
2016,03,10,20,55,7.30
2016,03,10,20,56,7.30
2016,03,10,20,57,7.30
2016,03,10,20,58,7.30
2016,03,10,20,59,7.30
2016,03,10,21,00,7.30
2016,03,10,21,01,7.30
2016,03,10,21,02,7.30
2016,03,10,21,03,7.20
2016,03,10,21,04,7.20
2016,03,10,21,05,7.20
2016,03,10,21,06,7.20
2016,03,10,21,07,7.20
2016,03,10,21,08,7.30
2016,03,10,21,09,7.30
2016,03,10,21,10,7.30
2016,03,10,21,11,7.30
2016,03,10,21,12,7.30
2016,03,10,21,13,7.30
2016,03,10,21,14,7.30
2016,03,10,21,15,7.30
2016,03,10,21,16,7.30
2016,03,10,21,17,7.30
2016,03,10,21,18,7.30
2016,03,10,21,19,7.20
2016,03,10,21,20,7.20
2016,03,10,21,21,7.20
2016,03,10,21,22,7.20
2016,03,10,21,23,7.10
2016,03,10,21,24,7.10
2016,03,10,21,25,7.10
2016,03,10,21,26,7.10
2016,03,10,21,27,7.00
2016,03,10,21,28,7.10
2016,03,10,21,29,7.10
2016,03,10,21,30,7.10
2016,03,10,21,31,7.10
2016,03,10,21,32,7.10
2016,03,10,21,33,7.10
2016,03,10,21,34,7.10
2016,03,10,21,35,7.10
2016,03,10,21,36,7.10
2016,03,10,21,37,7.10
2016,03,10,21,38,7.10
2016,03,10,21,39,7.10
2016,03,10,21,40,7.10
2016,03,10,21,41,7.10
2016,03,10,21,42,7.20
2016,03,10,21,43,7.20
2016,03,10,21,44,7.20
2016,03,10,21,45,7.30
2016,03,10,21,46,7.30
2016,03,10,21,47,7.30
2016,03,10,21,48,7.40
2016,03,10,21,49,7.40
2016,03,10,21,50,7.40
2016,03,10,21,51,7.50
2016,03,10,21,52,7.50
2016,03,10,21,53,7.50
2016,03,10,21,54,7.60
2016,03,10,21,55,7.60
2016,03,10,21,56,7.60
2016,03,10,21,57,7.60
2016,03,10,21,58,7.60
2016,03,10,21,59,7.60
2016,03,10,22,00,7.60
2016,03,10,22,01,7.60
2016,03,10,22,02,7.60
2016,03,10,22,03,7.60
2016,03,10,22,04,7.60
2016,03,10,22,05,7.60
2016,03,10,22,06,7.60
2016,03,10,22,07,7.60
2016,03,10,22,08,7.60
2016,03,10,22,09,7.60
2016,03,10,22,10,7.70
2016,03,10,22,11,7.70
2016,03,10,22,12,7.70
2016,03,10,22,13,7.70
2016,03,10,22,14,7.70
2016,03,10,22,15,7.70
2016,03,10,22,16,7.80
2016,03,10,22,17,7.80
2016,03,10,22,18,7.80
2016,03,10,22,19,7.90
2016,03,10,22,20,7.90
2016,03,10,22,21,7.90
2016,03,10,22,22,7.90
2016,03,10,22,23,8.00
2016,03,10,22,24,8.00
2016,03,10,22,25,8.00
2016,03,10,22,26,8.00
2016,03,10,22,27,8.10
2016,03,10,22,28,8.00
2016,03,10,22,29,8.00
2016,03,10,22,30,8.00
2016,03,10,22,31,8.00
2016,03,10,22,32,8.00
2016,03,10,22,33,8.00
2016,03,10,22,34,8.10
2016,03,10,22,35,8.00
2016,03,10,22,36,8.00
2016,03,10,22,37,8.00
2016,03,10,22,38,8.00
2016,03,10,22,39,8.00
2016,03,10,22,40,7.90
2016,03,10,22,41,7.90
2016,03,10,22,42,7.90
2016,03,10,22,43,7.80
2016,03,10,22,44,7.80
2016,03,10,22,45,7.80
2016,03,10,22,46,7.80
2016,03,10,22,47,7.70
2016,03,10,22,48,7.70
2016,03,10,22,49,7.70
2016,03,10,22,50,7.70
2016,03,10,22,51,7.70
2016,03,10,22,52,7.70
2016,03,10,22,53,7.70
2016,03,10,22,54,7.70
2016,03,10,22,55,7.70
2016,03,10,22,56,7.70
2016,03,10,22,57,7.70
2016,03,10,22,58,7.60
2016,03,10,22,59,7.60
2016,03,10,23,00,7.60
2016,03,10,23,01,7.60
2016,03,10,23,02,7.60
2016,03,10,23,03,7.50
2016,03,10,23,04,7.50
2016,03,10,23,05,7.50
2016,03,10,23,06,7.50
2016,03,10,23,07,7.50
2016,03,10,23,08,7.50
2016,03,10,23,09,7.40
2016,03,10,23,10,7.40
2016,03,10,23,11,7.40
2016,03,10,23,12,7.40
2016,03,10,23,13,7.40
2016,03,10,23,14,7.40
2016,03,10,23,15,7.40
2016,03,10,23,16,7.40
2016,03,10,23,17,7.40
2016,03,10,23,18,7.40
2016,03,10,23,19,7.40
2016,03,10,23,20,7.50
2016,03,10,23,21,7.50
2016,03,10,23,22,7.50
2016,03,10,23,23,7.40
2016,03,10,23,24,7.40
2016,03,10,23,25,7.40
2016,03,10,23,26,7.40
2016,03,10,23,27,7.40
2016,03,10,23,28,7.40
2016,03,10,23,29,7.40
2016,03,10,23,30,7.40
2016,03,10,23,31,7.40
2016,03,10,23,32,7.40
2016,03,10,23,33,7.40
2016,03,10,23,34,7.40
2016,03,10,23,35,7.40
2016,03,10,23,36,7.40
2016,03,10,23,37,7.40
2016,03,10,23,38,7.40
2016,03,10,23,39,7.40
2016,03,10,23,40,7.50
2016,03,10,23,41,7.50
2016,03,10,23,42,7.60
2016,03,10,23,43,7.60
2016,03,10,23,44,7.60
2016,03,10,23,45,7.70
2016,03,10,23,46,7.70
2016,03,10,23,47,7.70
2016,03,10,23,48,7.70
2016,03,10,23,49,7.80
2016,03,10,23,50,7.80
2016,03,10,23,51,7.80
2016,03,10,23,52,7.80
2016,03,10,23,53,7.80
2016,03,10,23,54,7.80
2016,03,10,23,55,7.80
2016,03,10,23,56,7.80
2016,03,10,23,57,7.80
2016,03,10,23,58,7.80
2016,03,10,23,59,7.80
